This is the latest recevied weather packets stored in our database for station/object KR4KUV. If no packets are shown the sender has not sent any weather packets the latest 10 day(s).
| Time | Temp. | Humidity | Pressure | Rain* | Wind** | Luminosity | Snow |
|---|---|---|---|---|---|---|---|
| 1787490373 | 24.44° C | 87% | 1017 hPa | 0 mm | - | 57 W/m² | - |
| 1787490072 | 25° C | 84% | 1016.9 hPa | 0 mm | - | 200 W/m² | - |
| 1787489767 | 23.89° C | 87% | 1016.9 hPa | 0 mm | - | 56 W/m² | - |
| 1787489463 | 22.78° C | 95% | 1016.8 hPa | 0 mm | - | 198 W/m² | - |
| 1787489159 | 22.22° C | 98% | 1016.8 hPa | 0 mm | - | 68 W/m² | - |
| 1787488855 | 21.67° C | 99% | 1016.6 hPa | 0 mm | - | 43 W/m² | - |
| 1787488550 | 21.67° C | 99% | 1016.6 hPa | 0 mm | - | 51 W/m² | - |
| 1787488246 | 21.67° C | 99% | 1016.6 hPa | 0 mm | - | 38 W/m² | - |
| 1787487943 | 21.11° C | 99% | 1016.4 hPa | 0 mm | - | 40 W/m² | - |
| 1787487639 | 21.11° C | 99% | 1016.5 hPa | 0 mm | - | 41 W/m² | - |
| 1787487335 | 21.11° C | 99% | 1016.3 hPa | 0 mm | - | 42 W/m² | - |
| 1787487033 | 21.67° C | 99% | 1016.3 hPa | 0 mm | - | 35 W/m² | - |
| 1787486732 | 21.11° C | 99% | 1016.1 hPa | 0 mm | - | 42 W/m² | - |
| 1787486431 | 20.56° C | 99% | 1016.1 hPa | 0 mm | - | 40 W/m² | - |
| 1787486126 | 20.56° C | 99% | 1016.2 hPa | 0 mm | - | 37 W/m² | - |
| 1787485821 | 20° C | 99% | 1016.3 hPa | 0 mm | - | 35 W/m² | - |
| 1787485518 | 20° C | 99% | 1016.1 hPa | 0 mm | - | 32 W/m² | - |
| 1787485212 | 19.44° C | 99% | 1016.1 hPa | 0 mm | - | 28 W/m² | - |
| 1787484908 | 19.44° C | 99% | 1016 hPa | 0 mm | - | 23 W/m² | - |
| 1787484605 | 19.44° C | 99% | 1016.1 hPa | 0 mm | - | 20 W/m² | - |
| 1787484300 | 19.44° C | 99% | 1016.1 hPa | 0 mm | - | 18 W/m² | - |
| 1787483995 | 19.44° C | 99% | 1016.1 hPa | 0 mm | - | 16 W/m² | - |
| 1787483692 | 19.44° C | 99% | 1016.1 hPa | 0 mm | - | 13 W/m² | - |
| 1787483388 | 19.44° C | 99% | 1015.9 hPa | 0 mm | - | 10 W/m² | - |
| 1787483085 | 19.44° C | 99% | 1015.6 hPa | 0 mm | - | 8 W/m² | - |
* Rain latest hour (hover to see other rain measurements)
** Current wind speed in m/s (hover to see current wind gust speed)